Location: Rowland
(34.5359°N, 79.2929°W)
Time: 19:29:20
(UTC+00:00)

Transit 2A - Pass Details

Date: 08 October 2022
Orbit: 598 x 959 km, 66.7° (Epoch: 03 December)

Event Time Altitude Azimuth Distance (km) Brightness Sun altitude
Rises 13:12:49 0° 316° (NW) 3,070 8.6 22.0°
Reaches altitude 10° 13:15:30 10° 301° (WNW) 2,209 7.9 22.5°
Maximum altitude 13:19:21 22° 251° (WSW) 1,611 7.4 23.2°
Drops below altitude 10° 13:23:28 10° 202° (SSW) 2,385 8.7 24.0°
Sets 13:26:30 0° 188° (S) 3,382 9.6 24.6°
